INTELSAT 33E DEB, 61997

Orbit data source: Space-Track

INTELSAT 33E DEB, 61997 is space debris in GEO originally from a launch on Wed, 24 Aug 2016 UTC launched from the French Guiana (FRGUI). Debris objects in space refer to the collection of defunct objects orbiting the Earth. Examples of debris include non-operational satellites, rocket bodies, and fragments generated from explosions, collisions, or faulty payload assembly.

Loading next visibility...
Identifier
61997, 2016-053P
Orbit
GEO
Country
Flag of UnknownUnknown / ITSO
Related business
Manufacturer
Boeing/ES
Mission
Spacecraft
Bus & Motor
Unknown
Mass
Unknown
Launch date (UTC)
2016-08-24 (9 years ago)
Launch vehicle
Unknown
Launch site
French Guiana (FRGUI)
Object type
Payload
Rocket body
Debris
Shape & HBR
Unknown
Radar Cross Section
RCS unknown

Expand to show TLE details & history
Last TLE update: 1 day ago

TLE from 1 day ago
0 INTELSAT 33E DEB
1 61997U 16053P   25259.39366311 -.00000088  00000-0  00000-0 0  9999
2 61997   0.8665  90.9246 0088294 258.9948   9.9043  1.01612872  3382
Epoch: 2025-09-16T09:26Z
TLE epoch observation values (Epoch: 2025-09-16T09:26:52.492Z)
Latitude
-0.87492°
Longitude
-137.30364°
Altitude
35,049.46 km
Speed
3.115 km/s
True Right ascension
23h 59m 59s
True Declination
0° 52' 26"
Sunlit
Object was in full shadow at epoch
Visualization orbit readout
Latitude
Unknown
Longitude
Unknown
Altitude
Unknown
Speed
Unknown
Apparent Right ascension
Unknown
Apparent Declination
Unknown
Sunlit
N/A
Visualization observer readout
Local Sidereal Time
09:21:04
Azimuth
Unknown
Elevation
Unknown
Doppler factor
Unknown
Orbital elements
Apogee altitude
35,784.876 km
Perigee altitude
35,046.844 km
Semi-major axis
41,793.997 km
Eccentricity
0.00883
Inclination
0.8665°
RAAN
90.9246°
Arg. of periapsis
258.9948°
True anomaly
10.08024°
Mean anomaly
9.9043°
Eccentric anomaly
9.99208°
Mean motion
0.25402 °/min
Orbital period
1,417.2 mins
BSTAR
0
Loading maneuver chart data...
Computing Atmospheric mass density...
Loading historical data...
Loading historical data...
Loading historical data...
Loading historical data...
Loading historical data...
Loading historical data...
Loading historical data...

Documentation

Showing up to 5 results
|